Columbus, NE

10:23 AM CDT on April 27, 2017 (GMT -0500)
Columbus Municipal

Weather History for KOLU - February, 2013

Change the Weather History Date:

Sunday, February 3, 2013

  Actual Average Record
Temperature  
Mean Temperature 32 °F -  
Max Temperature 48 °F 31 °F 59 °F (2005)
Min Temperature 17 °F 12 °F -15 °F (1989)
Degree Days  
Heating Degree Days 32    
Moisture  
Dew Point 24 °F    
Average Humidity 64    
Maximum Humidity 93    
Minimum Humidity 45    
Precipitation  
Precipitation 0.00 in - - ()
Sea Level Pressure  
Sea Level Pressure 30.02 in    
Wind  
Wind Speed 11 mph (WSW)    
Max Wind Speed 22 mph    
Max Gust Speed 26 mph    
Visibility 10 miles    
Events      
Averages and records for this station are not official NWS values.
T = Trace of Precipitation, MM = Missing Value Source: NWS Daily Summary

Daily Weather History Graph

Daily Weather History Graph

Search for Another Location

Airport or City:

Trip Planner

Search our weather history database for the weather conditions in past years. The results will help you decide how hot, cold, wet, or windy it might be!

Date:

Astronomy

Feb. 03, 2013 Rise Set
Actual Time 7:38 AM CST 5:48 PM CST
Civil Twilight 7:09 AM CST 6:17 PM CST
Nautical Twilight 6:36 AM CST 6:50 PM CST
Astronomical Twilight 6:04 AM CST 7:22 PM CST
Moon 1:07 AM CST (2/3) 11:26 AM CST (2/3)
Length of Visible Light 11h 08m
Length of Day
10h 09m
Waning Gibbous, 48% of the Moon is Illuminated
Feb 3
Waning Gibbous
Feb 10
New
Feb 17
First Quarter
Feb 25
Full
Mar 4
Last Quarter

Hourly Weather History & Observations

Time (CST) Temp. Windchill Dew Point Humidity Pressure Visibility Wind Dir Wind Speed Gust Speed Precip Events Conditions
12:15 AM 35.6 °F 26.6 °F 24.8 °F 65% 30.19 in 10.0 mi NW 13.8 mph - N/A   Overcast
12:35 AM 33.8 °F 21.9 °F 23.0 °F 65% 30.18 in 10.0 mi NW 21.9 mph 26.5 mph N/A   Mostly Cloudy
12:55 AM 33.8 °F 24.8 °F 23.0 °F 65% 30.18 in 10.0 mi NW 12.7 mph - N/A   Partly Cloudy
1:15 AM 33.8 °F 23.5 °F 23.0 °F 65% 30.19 in 10.0 mi NW 16.1 mph - N/A   Mostly Cloudy
1:35 AM 33.8 °F 24.3 °F 21.2 °F 60% 30.20 in 10.0 mi NW 13.8 mph - N/A   Overcast
1:55 AM 30.2 °F 21.9 °F 21.2 °F 69% 30.21 in 10.0 mi NNW 9.2 mph - N/A   Scattered Clouds
2:15 AM 28.4 °F 19.1 °F 19.4 °F 69% 30.21 in 10.0 mi NW 10.4 mph - N/A   Clear
2:35 AM 28.4 °F 19.1 °F 21.2 °F 74% 30.21 in 10.0 mi NW 10.4 mph - N/A   Clear
2:55 AM 28.4 °F 20.4 °F 19.4 °F 69% 30.21 in 10.0 mi NW 8.1 mph - N/A   Clear
3:15 AM 26.6 °F 18.2 °F 19.4 °F 74% 30.21 in 10.0 mi NW 8.1 mph - N/A   Clear
3:35 AM 24.8 °F 16.9 °F 19.4 °F 80% 30.21 in 10.0 mi NW 6.9 mph - N/A   Clear
3:55 AM 24.8 °F 19.1 °F 17.6 °F 74% 30.21 in 10.0 mi NW 4.6 mph - N/A   Clear
4:15 AM 24.8 °F 17.9 °F 19.4 °F 80% 30.20 in 10.0 mi NW 5.8 mph - N/A   Clear
4:35 AM 23.0 °F - 15.8 °F 74% 30.19 in 10.0 mi Calm Calm - N/A   Clear
4:55 AM 21.2 °F 16.4 °F 17.6 °F 86% 30.19 in 10.0 mi West 3.5 mph - N/A   Clear
5:15 AM 23.0 °F 18.4 °F 17.6 °F 80% 30.19 in 10.0 mi WSW 3.5 mph - N/A   Clear
5:35 AM 24.8 °F 19.1 °F 17.6 °F 74% 30.19 in 10.0 mi SW 4.6 mph - N/A   Clear
5:55 AM 23.0 °F 18.4 °F 17.6 °F 80% 30.19 in 10.0 mi WNW 3.5 mph - N/A   Clear
6:15 AM 21.2 °F 13.6 °F 15.8 °F 80% 30.19 in 10.0 mi West 5.8 mph - N/A   Clear
6:35 AM 19.4 °F - 15.8 °F 86% 30.18 in 10.0 mi Calm Calm - N/A   Clear
6:55 AM 19.4 °F - 14.0 °F 80% 30.18 in 10.0 mi Calm Calm - N/A   Clear
7:15 AM 23.0 °F 14.7 °F 17.6 °F 80% 30.18 in 10.0 mi SW 6.9 mph - N/A   Clear
7:35 AM 19.4 °F - 17.6 °F 93% 30.18 in 10.0 mi Calm Calm - N/A   Clear
7:55 AM 17.6 °F 12.3 °F 12.2 °F 79% 30.18 in 10.0 mi SW 3.5 mph - N/A   Clear
8:15 AM 26.6 °F 18.2 °F 21.2 °F 80% 30.18 in 10.0 mi WSW 8.1 mph - N/A   Clear
8:35 AM 26.6 °F 20.0 °F 21.2 °F 80% 30.17 in 10.0 mi WSW 5.8 mph - N/A   Clear
8:55 AM 28.4 °F 22.2 °F 23.0 °F 80% 30.16 in 10.0 mi SW 5.8 mph - N/A   Clear
9:15 AM 30.2 °F 25.4 °F 23.0 °F 75% 30.15 in 10.0 mi SSW 4.6 mph - N/A   Clear
9:35 AM 32.0 °F 26.4 °F 24.8 °F 75% 30.14 in 10.0 mi SSW 5.8 mph - N/A   Clear
9:55 AM 33.8 °F 27.7 °F 24.8 °F 70% 30.13 in 10.0 mi SW 6.9 mph - N/A   Clear
10:15 AM 35.6 °F 28.0 °F 24.8 °F 65% 30.12 in 10.0 mi SW 10.4 mph - N/A   Clear
10:35 AM 37.4 °F 29.3 °F 23.0 °F 56% 30.10 in 10.0 mi SSW 12.7 mph 17.3 mph N/A   Clear
10:55 AM 39.2 °F 31.6 °F 19.4 °F 45% 30.09 in 10.0 mi SSW 12.7 mph 16.1 mph N/A   Clear
11:15 AM 39.2 °F 31.6 °F 23.0 °F 52% 30.08 in 10.0 mi SSW 12.7 mph - N/A   Clear
11:35 AM 41.0 °F 33.5 °F 24.8 °F 53% 30.07 in 10.0 mi SSW 13.8 mph 19.6 mph N/A   Clear
11:55 AM 42.8 °F 35.4 °F 24.8 °F 49% 30.06 in 10.0 mi SW 15.0 mph 21.9 mph N/A   Clear
12:15 PM 42.8 °F 34.8 °F 26.6 °F 53% 30.05 in 10.0 mi SSW 17.3 mph 23.0 mph N/A   Clear
12:35 PM 44.6 °F 36.9 °F 26.6 °F 49% 30.03 in 10.0 mi SSW 18.4 mph 25.3 mph N/A   Clear
12:55 PM 44.6 °F 36.9 °F 26.6 °F 49% 30.02 in 10.0 mi SSW 18.4 mph 25.3 mph N/A   Clear
1:15 PM 44.6 °F 37.2 °F 28.4 °F 53% 30.00 in 10.0 mi SSW 17.3 mph 24.2 mph N/A   Clear
1:35 PM 46.4 °F 40.1 °F 28.4 °F 50% 29.99 in 10.0 mi SSW 15.0 mph 23.0 mph N/A   Clear
1:55 PM 46.4 °F 39.8 °F 28.4 °F 50% 29.97 in 10.0 mi SW 16.1 mph 26.5 mph N/A   Clear
2:15 PM 46.4 °F 39.0 °F 28.4 °F 50% 29.95 in 10.0 mi SSW 19.6 mph 25.3 mph N/A   Clear
2:35 PM 46.4 °F 39.5 °F 28.4 °F 50% 29.94 in 10.0 mi SW 17.3 mph 26.5 mph N/A   Clear
2:55 PM 48.2 °F - 28.4 °F 46% 29.93 in 10.0 mi SSW 18.4 mph 24.2 mph N/A   Clear
3:15 PM 48.2 °F - 30.2 °F 50% 29.91 in 10.0 mi SW 16.1 mph 23.0 mph N/A   Clear
3:35 PM 48.2 °F - 30.2 °F 50% 29.90 in 10.0 mi SW 18.4 mph 24.2 mph N/A   Clear
3:55 PM 46.4 °F 38.7 °F 30.2 °F 53% 29.88 in 10.0 mi SSW 20.7 mph 24.2 mph N/A   Clear
4:15 PM 46.4 °F 39.5 °F 28.4 °F 50% 29.88 in 10.0 mi SSW 17.3 mph 23.0 mph N/A   Clear
4:35 PM 46.4 °F 39.2 °F 28.4 °F 50% 29.87 in 10.0 mi SSW 18.4 mph 24.2 mph N/A   Clear
4:55 PM 44.6 °F 38.4 °F 28.4 °F 53% 29.87 in 10.0 mi SSW 12.7 mph 19.6 mph N/A   Clear
5:15 PM 44.6 °F 38.4 °F 28.4 °F 53% 29.85 in 10.0 mi SSW 12.7 mph 17.3 mph N/A   Clear
5:35 PM 44.6 °F 38.1 °F 28.4 °F 53% 29.85 in 10.0 mi SSW 13.8 mph 20.7 mph N/A   Clear
5:55 PM 42.8 °F 36.2 °F 28.4 °F 57% 29.85 in 10.0 mi SSW 12.7 mph - N/A   Clear
6:15 PM 42.8 °F 35.8 °F 28.4 °F 57% 29.85 in 10.0 mi SSW 13.8 mph - N/A   Clear
6:35 PM 42.8 °F 37.0 °F 28.4 °F 57% 29.85 in 10.0 mi SW 10.4 mph - N/A   Clear
6:55 PM 42.8 °F 37.5 °F 26.6 °F 53% 29.85 in 10.0 mi SSW 9.2 mph - N/A   Clear
7:15 PM 41.0 °F 34.7 °F 26.6 °F 57% 29.85 in 10.0 mi SSW 10.4 mph - N/A   Clear
7:35 PM 39.2 °F 33.6 °F 26.6 °F 61% 29.84 in 10.0 mi SW 8.1 mph - N/A   Clear
7:55 PM 39.2 °F 33.0 °F 26.6 °F 61% 29.83 in 10.0 mi SSW 9.2 mph - N/A   Clear
8:15 PM 39.2 °F 35.0 °F 26.6 °F 61% 29.83 in 10.0 mi SSW 5.8 mph - N/A   Clear
8:35 PM 37.4 °F 32.8 °F 26.6 °F 65% 29.82 in 10.0 mi SSW 5.8 mph - N/A   Clear
8:55 PM 39.2 °F 35.9 °F 26.6 °F 61% 29.81 in 10.0 mi SW 4.6 mph - N/A   Clear
9:15 PM 37.4 °F 34.9 °F 26.6 °F 65% 29.81 in 10.0 mi SSW 3.5 mph - N/A   Clear
9:35 PM 37.4 °F 33.8 °F 28.4 °F 70% 29.80 in 10.0 mi SW 4.6 mph - N/A   Clear
9:55 PM 39.2 °F 33.0 °F 28.4 °F 65% 29.79 in 10.0 mi SW 9.2 mph - N/A   Clear
10:15 PM 39.2 °F 32.5 °F 28.4 °F 65% 29.79 in 10.0 mi WSW 10.4 mph - N/A   Clear
10:35 PM 39.2 °F 33.6 °F 26.6 °F 61% 29.79 in 10.0 mi WSW 8.1 mph - N/A   Clear
10:55 PM 39.2 °F 33.6 °F 26.6 °F 61% 29.79 in 10.0 mi WSW 8.1 mph - N/A   Clear
11:15 PM 37.4 °F 32.8 °F 26.6 °F 65% 29.78 in 10.0 mi West 5.8 mph - N/A   Clear
11:35 PM 35.6 °F 29.9 °F 26.6 °F 70% 29.78 in 10.0 mi West 6.9 mph - N/A   Clear
11:55 PM 35.6 °F 29.9 °F 26.6 °F 70% 29.78 in 10.0 mi West 6.9 mph - N/A   Clear